Location: Zagreb
(45.8000°N, 16.0000°E)
Time: 20:17:07
(UTC+01:00)

DX 1 - Pass Details

Date: 08 November 2020
Orbit: 619 x 630 km, 98.5° (Epoch: 01 December)

Event Time Altitude Azimuth Distance (km) Brightness Sun altitude
Rises 03:57:32 0° 115° (ESE) 2,889 ? -29.6°
Reaches altitude 10° 04:00:38 10° 90° (E) 1,988 ? -29.1°
Maximum altitude 04:02:52 14° 59° (ENE) 1,740 ? -28.7°
Drops below altitude 10° 04:05:05 10° 28° (NNE) 1,996 ? -28.3°
Sets 04:08:13 0° 4° (N) 2,909 ? -27.7°
